Temperature
28 29 29 29 29 28 28 29 29 30 30 30 30 29 27 25 24 23 22 21 20 20 19 18 18 18 18 18 17 17 17 17 17 17 17 17 17 17 17 16 16 16 16 16
27 28 28 28 29 29 28 29 29 30 30 31 29 27 26 25 23 23 22 21 20 19 19 18 18 18 18 17 17 17 17 17 17 17 17 17 17 16 16 16 16 16 15 15
27 28 27 27 28 29 29 29 29 29 30 30 28 27 26 24 24 23 22 21 20 19 19 18 18 18 17 17 17 17 17 17 17 16 16 16 16 16 16 16 15 15 15 15
27 26 25 28 29 29 29 29 29 29 29 28 27 26 24 24 24 23 22 21 20 19 19 18 18 18 17 17 17 17 17 17 16 16 16 16 16 15 15 15 15 15 15 15
26 26 26 27 27 28 28 28 28 28 28 27 26 25 25 23 23 22 22 21 20 19 19 18 18 17 17 17 16 16 16 16 16 16 16 16 15 15 15 15 15 15 14 14
25 25 26 27 26 25 27 27 27 26 26 26 25 27 27 22 22 21 21 20 19 19 18 18 18 17 17 17 16 16 16 16 16 16 15 15 15 15 15 15 14 14 14 14
24 25 26 25 24 25 26 26 23 23 24 24 25 25 23 21 21 20 20 19 19 18 18 17 17 17 17 16 16 16 16 16 16 15 15 15 15 15 14 14 14 14 13 13
24 24 25 23 24 25 23 21 21 21 22 22 22 21 20 20 19 19 18 18 18 18 17 17 17 17 16 16 16 16 15 15 15 15 15 14 14 14 14 13 13 13 13 12
24 24 21 20 21 20 19 20 20 20 20 20 20 19 19 19 18 18 18 17 17 17 17 17 17 16 16 16 16 15 15 15 15 15 14 14 13 13 13 13 12 12 12 12
21 22 20 19 19 18 18 18 19 19 19 19 19 19 19 18 17 17 17 17 17 17 17 16 16 16 16 16 15 15 15 15 14 14 14 13 13 13 12 12 12 12 12 11
20 20 20 19 18 17 17 17 18 18 18 18 18 18 18 17 16 16 16 16 16 16 16 16 16 16 15 15 15 15 14 14 14 13 13 13 12 12 12 12 12 12 11 11
20 18 19 18 16 16 17 17 17 17 17 17 17 17 17 16 16 16 15 15 15 15 15 15 15 15 15 15 14 14 13 13 13 12 12 12 12 11 11 11 11 11 11 11
16 16 16 16 16 16 16 16 16 16 16 16 16 16 16 15 15 15 15 15 15 14 14 14 14 14 14 14 14 13 13 13 12 12 12 11 11 11 10 10 10 10 10 10
15 15 16 16 15 15 15 15 15 15 15 15 15 15 15 14 14 14 14 14 14 14 14 13 13 13 13 13 13 13 12 12 12 11 11 11 10 10 10 10 9 9 9 9
14 14 15 15 14 15 15 15 15 14 14 14 14 14 14 14 14 14 13 13 13 13 13 13 13 13 13 12 12 12 12 11 11 11 11 10 10 10 9 9 9 9 8 8
14 14 14 14 14 14 14 14 14 14 13 13 14 13 13 13 13 13 13 13 12 12 12 12 12 12 12 12 12 11 11 11 10 10 10 10 9 9 9 9 8 8 8 8
13 14 14 14 14 14 14 14 14 14 13 13 13 13 13 13 13 12 12 12 12 11 11 11 11 11 11 11 11 11 10 10 10 10 9 9 9 9 8 8 8 8 8 7
12 13 13 13 13 14 14 13 13 13 13 12 12 12 12 12 12 11 11 11 11 11 11 10 10 10 10 10 10 10 10 9 9 9 9 8 8 8 8 8 8 8 7 7
12 12 13 13 13 13 13 13 12 12 12 12 12 12 12 11 11 11 11 10 10 10 10 10 10 10 10 9 9 9 9 8 8 8 8 8 8 8 8 8 7 7 7 7
12 12 12 12 12 12 12 12 12 11 11 11 11 11 11 10 10 10 10 10 10 9 9 9 9 9 9 9 9 8 8 8 8 8 8 8 7 7 7 7 7 7 7 7
11 11 11 12 12 12 11 11 11 11 11 11 11 10 10 10 10 9 9 9 9 9 9 9 9 8 8 8 8 8 8 8 7 7 7 7 7 7 7 7 7 7 6 6
10 10 11 11 11 11 11 11 11 10 10 10 10 10 10 9 9 9 9 9 9 9 9 8 8 8 8 8 8 8 8 8 7 7 7 7 7 7 7 7 7 6 6 6
9 9 10 10 10 10 10 10 10 10 10 10 10 9 9 9 9 9 8 8 9 8 8 8 8 8 8 8 8 8 8 8 7 7 7 7 7 7 7 7 7 7 6 6
9 9 9 9 9 9 9 9 9 9 9 9 9 9 9 9 9 9 9 9 8 8 8 8 8 8 8 8 8 8 8 8 8 8 8 7 7 7 7 7 7 7 7 6
8 8 8 8 9 9 9 9 9 9 9 9 9 9 9 9 9 8 8 8 8 8 8 8 8 8 8 8 8 8 8 8 8 8 8 8 7 7 7 7 7 7 7 7
8 8 8 8 8 8 9 9 9 9 9 9 9 9 9 8 8 8 8 8 8 8 8 8 8 8 8 8 8 8 8 8 8 8 8 8 8 8 7 7 7 7 7 7
8 8 8 8 8 9 9 9 9 9 9 9 9 9 8 8 8 8 8 8 8 8 8 8 8 8 8 8 8 8 8 8 8 8 8 8 8 7 7 7 7 7 7 7
Wind_Speed
11 6 6 11 13 15 17 16 13 11 11 9 6 5 6 9 11 12 12 12 12 11 10 10 9 8 8 7 6 6 5 4 4 3 3 3 3 3 2 2 2 2 2 2
12 11 10 11 11 13 15 14 14 12 10 5 2 4 7 10 12 13 13 13 13 12 11 11 10 9 8 7 7 6 6 5 5 4 4 3 3 3 3 3 2 2 2 2
12 10 10 14 14 14 13 12 12 12 8 3 4 5 8 10 13 13 13 13 13 13 12 11 10 10 9 8 7 7 6 6 5 5 4 4 3 3 3 3 4 4 3 3
9 9 14 8 5 10 12 11 10 9 6 4 4 4 5 8 11 12 13 13 13 12 12 11 11 10 9 9 8 7 6 6 5 5 5 4 4 4 4 4 4 4 4 4
10 14 12 6 4 6 10 10 7 8 7 4 2 4 6 7 9 11 12 12 12 12 13 12 12 11 10 9 8 7 6 6 5 5 5 5 5 4 4 4 4 4 4 4
10 13 14 7 4 2 6 9 1 3 5 4 5 7 4 6 7 9 10 11 12 12 12 12 11 11 10 9 8 7 6 6 5 5 6 5 5 5 4 4 4 4 4 4
14 13 9 2 2 5 10 3 4 3 3 4 5 3 2 6 7 9 10 11 12 12 11 11 11 10 9 8 7 6 6 6 6 5 5 5 5 5 5 4 4 4 4 4
13 15 9 4 2 3 3 6 4 4 3 2 1 1 3 7 9 10 11 11 12 11 10 10 10 10 9 7 7 7 7 6 6 5 5 5 5 5 4 5 5 4 4 4
6 4 4 3 2 4 6 6 5 5 3 1 2 2 4 7 8 9 10 10 10 10 10 9 9 8 8 7 7 7 7 6 5 5 5 4 4 5 4 4 3 3 3 3
4 2 2 3 3 5 6 6 6 4 1 1 2 4 5 6 8 8 8 9 9 10 10 9 8 7 8 8 7 7 6 5 5 5 5 4 3 2 3 2 3 3 3 3
6 3 2 1 5 6 6 5 4 3 2 2 3 4 5 6 8 8 8 7 8 8 9 9 8 8 8 7 7 7 6 5 5 5 5 4 3 2 2 2 1 1 3 3
4 2 3 4 6 6 5 4 3 3 3 3 3 4 6 6 7 8 8 8 8 8 9 9 8 7 7 6 6 7 6 5 5 4 5 5 5 5 10 7 8 8 6 3
6 6 6 6 5 4 4 3 2 3 3 4 4 5 7 7 7 7 8 7 7 7 7 8 7 7 6 6 6 6 6 5 5 5 5 5 5 5 5 6 9 10 9 8
5 6 6 4 4 3 2 1 2 3 4 5 5 7 8 8 8 8 7 7 7 7 7 7 7 6 5 6 6 6 5 5 5 4 4 5 5 5 5 5 5 5 6 8
6 6 6 5 4 2 2 2 3 4 5 6 7 7 8 8 7 7 7 7 7 7 7 7 6 5 5 5 6 6 5 4 4 4 4 5 5 5 5 6 6 6 6 6
5 5 5 5 4 3 3 3 3 4 5 6 7 7 8 9 9 8 7 7 7 7 6 6 6 5 5 5 6 5 5 6 5 5 5 5 5 5 6 6 6 6 6 6
6 6 6 5 4 3 3 3 3 4 5 6 7 8 9 10 9 8 7 6 7 7 6 5 5 5 5 5 5 5 5 6 6 5 5 5 5 6 6 6 5 5 5 5
8 8 7 6 5 3 3 3 4 5 5 7 8 9 9 9 9 8 7 7 8 7 6 5 5 5 5 5 5 5 5 5 5 5 5 5 5 6 6 6 6 6 6 6
6 6 6 5 4 4 4 4 5 5 6 7 8 8 8 8 8 8 8 8 7 6 5 5 6 5 6 6 5 5 6 6 6 6 6 6 5 5 5 5 6 6 6 6
3 3 4 4 4 4 5 5 6 6 7 8 9 9 9 8 8 8 8 6 4 4 6 6 6 6 6 6 5 6 7 7 7 6 6 6 5 6 5 6 6 6 6 6
2 2 3 4 5 6 6 7 7 8 8 8 8 8 8 8 8 7 7 6 5 5 7 6 5 5 6 5 5 6 7 7 7 6 6 5 5 5 5 6 5 5 5 5
1 1 3 4 5 6 6 6 7 8 9 8 9 9 9 9 8 7 6 5 6 5 5 6 5 6 5 5 6 7 7 7 6 6 5 5 5 5 5 5 5 5 5 5
2 3 4 5 6 7 8 7 8 8 9 9 9 9 8 7 6 7 6 5 6 5 5 6 7 7 4 5 6 6 7 6 6 6 5 5 5 5 5 5 5 5 5 5
4 5 5 6 8 9 9 9 8 8 9 8 8 8 8 7 6 6 7 8 6 5 5 7 8 6 5 4 5 6 6 6 5 5 5 5 4 4 4 4 4 5 5 6
5 6 7 8 8 8 9 10 10 9 9 8 9 8 6 6 6 7 7 7 7 5 6 7 7 6 5 4 5 5 5 4 4 3 4 4 4 4 4 4 4 5 5 5
7 7 7 7 7 7 7 8 8 8 8 8 8 7 7 7 7 7 6 7 8 6 5 5 6 6 4 4 4 4 4 4 4 4 3 3 4 4 4 4 5 5 5 5
8 8 7 7 7 6 7 7 8 8 7 8 8 7 7 7 7 7 7 6 5 5 4 4 4 4 4 3 3 3 3 3 3 3 3 3 3 4 4 5 4 4 5 5
Wind_Direction
246 239 214 212 211 210 220 236 246 245 248 252 244 226 191 175 170 169 170 171 171 169 166 163 159 156 153 149 149 151 152 154 160 162 158 155 154 162 166 170 179 184 193 198
229 229 227 231 224 215 222 233 244 253 256 255 232 188 179 177 175 176 176 176 173 169 166 163 160 156 151 148 147 147 145 140 135 135 132 131 133 133 133 132 131 137 145 145
223 210 217 228 223 219 219 225 235 241 248 241 217 204 194 186 184 181 179 176 173 170 166 162 158 154 151 149 148 146 140 134 129 128 127 123 124 124 123 115 107 102 103 103
225 202 225 224 207 225 227 231 238 253 265 256 252 224 204 195 189 184 179 175 169 164 160 157 153 150 149 149 149 146 142 140 139 135 128 123 118 113 109 106 105 101 96 96
226 223 226 199 190 214 221 230 241 246 254 257 228 201 195 188 189 182 176 169 164 161 157 153 152 151 151 150 150 150 149 148 145 142 136 131 125 118 114 109 106 108 104 99
228 235 231 210 155 199 228 225 240 254 250 235 204 229 189 162 173 169 165 159 156 153 151 152 152 153 153 154 154 156 154 150 146 146 142 137 131 127 121 117 116 112 105 101
230 233 234 81 111 191 219 232 19 337 291 237 222 296 99 147 157 156 153 152 151 151 152 152 153 154 155 155 155 153 147 143 138 138 139 139 133 133 133 132 125 120 115 107
227 233 225 65 171 223 334 356 348 334 312 275 227 97 122 137 144 147 145 147 148 146 145 147 152 154 152 151 145 143 143 141 140 142 143 140 139 139 141 143 140 139 130 119
232 234 54 32 359 356 339 329 331 327 323 289 188 153 133 136 140 143 142 143 145 142 139 140 148 154 149 141 140 142 141 140 139 138 138 141 145 149 151 155 156 153 148 140
245 210 5 357 359 352 345 334 330 329 324 219 160 143 135 135 135 134 134 137 140 140 139 138 142 143 139 139 142 142 141 140 140 141 138 128 128 143 152 155 157 159 158 154
242 264 294 67 14 360 355 358 8 30 55 99 133 135 133 131 130 130 130 130 134 137 135 133 135 135 136 141 145 145 145 146 145 140 133 125 107 72 111 94 83 164 167 163
266 347 315 324 345 341 347 4 27 48 65 83 114 122 125 125 128 128 127 127 130 132 131 130 129 127 130 138 145 147 147 146 146 143 139 136 124 92 57 63 61 53 43 73
289 310 307 300 314 330 339 358 40 77 91 97 105 116 121 122 122 120 120 119 120 124 126 126 125 123 127 135 140 144 146 145 147 147 146 142 137 134 122 89 75 66 64 74
284 287 279 288 310 320 324 11 82 95 101 108 113 114 116 118 118 119 119 119 121 123 125 126 125 124 131 136 140 143 144 140 145 146 146 145 145 143 138 134 123 102 82 86
280 273 269 274 279 267 225 172 139 126 120 116 116 119 123 123 120 118 119 121 121 119 119 122 122 121 129 139 142 141 139 137 133 132 136 138 140 139 135 132 130 128 125 112
283 273 259 248 243 218 204 187 163 148 140 130 121 123 127 123 120 118 118 125 128 124 123 127 126 126 131 138 135 129 124 119 128 133 133 131 133 133 133 134 135 136 139 138
266 257 254 244 232 212 204 189 167 157 152 141 131 128 125 122 120 116 116 117 115 115 119 120 120 126 134 138 135 128 126 128 133 131 131 133 133 132 133 134 137 139 136 127
260 256 255 252 243 223 194 170 156 152 149 140 135 133 132 131 127 125 123 120 117 111 107 110 115 122 126 125 123 123 127 132 133 127 126 128 129 133 135 135 137 133 127 129
256 249 244 232 218 204 189 166 150 143 137 138 138 137 135 131 129 128 127 126 125 121 115 110 113 123 122 119 120 126 128 128 125 123 124 125 129 131 133 134 134 136 138 141
258 239 225 213 190 173 163 154 144 139 140 141 138 135 132 130 130 129 126 120 115 117 125 127 131 123 124 128 137 132 132 132 130 129 131 137 136 135 136 136 137 139 144 149
248 216 198 181 160 150 148 146 142 141 140 140 137 136 132 130 132 133 130 120 109 115 127 135 132 127 126 137 152 134 134 133 135 137 139 139 140 141 143 146 147 152 156 160
41 134 146 144 139 131 127 132 135 137 136 131 129 131 131 131 130 124 116 118 126 131 133 129 123 116 128 150 135 131 135 138 139 140 142 145 148 151 152 153 157 161 165 168
105 115 122 128 130 126 121 123 127 129 128 128 130 134 132 130 134 133 127 122 130 135 128 118 113 125 161 159 137 140 140 143 144 145 148 152 155 157 160 164 168 170 173 177
112 110 110 118 124 126 124 120 119 120 122 123 126 130 131 129 120 111 113 120 125 139 127 119 133 156 193 154 143 143 142 143 146 150 153 157 161 168 173 176 177 179 183 188
108 110 114 118 120 121 122 123 122 123 123 120 119 120 118 115 117 118 120 128 134 140 127 134 152 178 181 153 146 146 149 150 155 164 168 175 184 186 189 191 192 195 198 200
105 104 104 109 114 119 123 121 119 120 120 117 112 110 110 113 118 123 129 135 136 137 132 137 149 176 163 148 148 154 156 153 170 192 188 191 197 203 203 204 209 214 212 213
100 101 102 99 100 106 110 110 112 113 114 115 113 112 113 115 119 123 127 133 138 139 139 145 154 163 161 160 161 169 179 187 196 201 199 203 210 216 216 218 224 225 228 226
Height
1479 1476 1478 1480 1483 1486 1490 1487 1490 1487 1485 1482 1482 1487 1491 1496 1499 1503 1506 1509 1511 1514 1516 1518 1520 1522 1524 1526 1527 1528 1529 1530 1530 1531 1532 1533 1534 1534 1535 1535 1536 1536 1537 1537
1484 1478 1479 1481 1480 1482 1484 1483 1483 1483 1482 1478 1482 1487 1491 1494 1497 1500 1503 1506 1509 1512 1514 1517 1519 1521 1523 1525 1526 1527 1529 1529 1530 1530 1531 1532 1533 1533 1534 1534 1534 1535 1535 1535
1482 1478 1483 1486 1478 1478 1479 1478 1479 1482 1479 1479 1483 1485 1488 1491 1494 1497 1501 1504 1507 1510 1512 1515 1518 1520 1522 1524 1526 1527 1528 1529 1529 1530 1531 1531 1532 1533 1533 1533 1533 1533 1534 1534
1479 1486 1497 1476 1469 1471 1474 1475 1475 1477 1477 1480 1483 1485 1488 1490 1492 1495 1499 1502 1506 1509 1511 1514 1516 1519 1521 1523 1525 1526 1528 1529 1529 1530 1530 1531 1531 1532 1532 1532 1533 1533 1533 1533
1480 1484 1480 1474 1473 1473 1475 1476 1475 1476 1478 1481 1483 1485 1486 1489 1491 1494 1497 1501 1504 1507 1510 1513 1516 1518 1520 1522 1524 1526 1527 1528 1529 1529 1530 1530 1531 1531 1531 1532 1532 1532 1532 1532
1481 1484 1485 1473 1473 1477 1478 1479 1477 1478 1479 1480 1482 1480 1481 1487 1490 1493 1496 1500 1503 1506 1509 1512 1514 1517 1519 1521 1523 1524 1526 1527 1527 1528 1529 1530 1530 1530 1531 1531 1531 1532 1532 1532
1481 1481 1472 1473 1476 1478 1484 1480 1481 1480 1481 1481 1481 1482 1485 1487 1490 1492 1495 1498 1502 1505 1508 1511 1513 1516 1518 1520 1521 1523 1524 1525 1526 1527 1528 1529 1529 1529 1530 1530 1531 1531 1531 1531
1479 1481 1478 1477 1477 1477 1480 1482 1482 1482 1482 1482 1483 1484 1485 1486 1489 1492 1494 1497 1500 1504 1507 1509 1512 1515 1517 1519 1520 1521 1523 1524 1525 1526 1527 1528 1528 1528 1529 1529 1530 1530 1530 1530
1474 1477 1481 1481 1482 1483 1484 1483 1483 1482 1482 1483 1483 1485 1486 1487 1489 1492 1494 1496 1499 1502 1505 1508 1511 1513 1515 1517 1518 1520 1521 1522 1524 1524 1525 1526 1527 1527 1528 1528 1529 1529 1530 1530
1479 1477 1481 1483 1483 1484 1484 1484 1483 1483 1482 1483 1483 1484 1486 1488 1489 1491 1493 1496 1499 1501 1503 1506 1509 1511 1513 1515 1517 1518 1519 1521 1522 1523 1523 1524 1525 1526 1527 1527 1528 1528 1528 1529
1480 1481 1482 1483 1485 1485 1484 1484 1483 1483 1483 1483 1484 1485 1486 1488 1489 1491 1493 1495 1498 1500 1502 1504 1507 1509 1511 1513 1515 1516 1518 1519 1520 1521 1521 1522 1523 1524 1525 1526 1526 1527 1527 1528
1479 1484 1485 1485 1486 1485 1485 1484 1483 1483 1483 1483 1484 1485 1486 1488 1490 1492 1493 1495 1497 1500 1501 1503 1505 1507 1509 1511 1513 1514 1516 1517 1518 1519 1519 1520 1521 1522 1522 1523 1524 1525 1525 1526
1486 1486 1486 1486 1485 1485 1485 1484 1484 1484 1483 1484 1484 1485 1486 1489 1491 1492 1494 1496 1497 1499 1501 1503 1505 1506 1508 1509 1511 1513 1514 1515 1516 1517 1518 1519 1520 1521 1521 1522 1523 1523 1524 1524
1486 1485 1485 1485 1484 1484 1484 1484 1484 1484 1484 1484 1485 1486 1487 1489 1491 1492 1494 1496 1498 1499 1501 1503 1504 1505 1507 1508 1510 1512 1513 1514 1515 1516 1517 1517 1518 1519 1520 1521 1521 1522 1523 1523
1484 1484 1484 1483 1483 1483 1484 1484 1484 1484 1484 1484 1485 1486 1488 1490 1491 1492 1494 1497 1499 1500 1501 1502 1504 1505 1506 1508 1509 1510 1512 1513 1513 1514 1515 1516 1517 1518 1519 1520 1521 1522 1522 1523
1482 1482 1482 1482 1482 1482 1483 1484 1484 1484 1484 1485 1485 1486 1488 1489 1492 1493 1495 1497 1498 1500 1501 1502 1503 1504 1506 1507 1508 1509 1510 1511 1512 1513 1514 1515 1516 1517 1518 1519 1521 1522 1523 1523
1480 1480 1480 1480 1481 1481 1482 1483 1483 1484 1485 1485 1486 1487 1488 1489 1491 1493 1495 1497 1498 1500 1501 1502 1502 1504 1505 1506 1507 1508 1509 1510 1511 1512 1513 1514 1515 1516 1518 1519 1520 1522 1523 1523
1477 1477 1477 1478 1479 1480 1481 1481 1482 1483 1484 1485 1486 1487 1488 1490 1491 1494 1495 1497 1498 1500 1501 1501 1503 1504 1505 1505 1506 1507 1508 1509 1511 1512 1513 1514 1515 1517 1518 1519 1520 1522 1523 1523
1473 1474 1475 1476 1477 1478 1479 1480 1482 1483 1484 1485 1486 1488 1489 1491 1492 1494 1495 1497 1498 1500 1501 1502 1502 1504 1505 1505 1506 1507 1508 1510 1511 1512 1513 1515 1516 1517 1518 1520 1521 1522 1523 1524
1470 1471 1472 1473 1475 1476 1478 1479 1481 1482 1484 1485 1486 1488 1489 1491 1493 1494 1495 1497 1499 1500 1501 1502 1503 1504 1505 1505 1506 1508 1509 1510 1512 1513 1514 1516 1517 1518 1519 1520 1521 1522 1524 1525
1468 1469 1470 1471 1473 1475 1477 1478 1480 1481 1483 1485 1486 1488 1489 1491 1493 1495 1496 1498 1499 1500 1501 1502 1504 1505 1506 1506 1508 1509 1510 1512 1513 1514 1515 1517 1518 1519 1520 1521 1523 1524 1525 1526
1467 1467 1468 1470 1472 1474 1476 1478 1479 1481 1483 1484 1486 1488 1490 1492 1494 1495 1497 1499 1500 1501 1502 1504 1505 1506 1507 1508 1510 1511 1512 1513 1514 1515 1517 1518 1519 1521 1522 1523 1524 1525 1526 1527
1467 1468 1469 1470 1472 1474 1476 1477 1479 1481 1483 1485 1487 1490 1491 1493 1495 1496 1498 1499 1501 1502 1504 1505 1506 1507 1508 1510 1512 1513 1514 1515 1516 1517 1518 1520 1521 1522 1523 1524 1524 1525 1526 1527
1467 1468 1469 1471 1473 1474 1476 1478 1480 1482 1485 1487 1489 1491 1493 1494 1496 1498 1499 1500 1502 1504 1505 1506 1507 1509 1511 1513 1514 1515 1516 1517 1518 1519 1520 1521 1522 1523 1524 1524 1525 1526 1526 1527
1468 1469 1470 1472 1474 1476 1478 1480 1482 1484 1486 1488 1490 1492 1494 1496 1497 1499 1500 1502 1504 1506 1507 1508 1509 1511 1513 1515 1515 1516 1517 1518 1519 1520 1521 1522 1523 1523 1524 1525 1525 1525 1526 1526
1470 1471 1473 1474 1476 1478 1480 1482 1484 1486 1489 1490 1492 1494 1496 1497 1499 1501 1502 1504 1506 1507 1509 1510 1511 1513 1515 1516 1517 1517 1518 1519 1520 1520 1521 1522 1522 1523 1523 1524 1524 1524 1525 1525
1473 1475 1476 1478 1480 1482 1483 1485 1487 1489 1491 1493 1494 1496 1498 1500 1501 1503 1505 1507 1508 1510 1511 1512 1513 1514 1516 1517 1517 1518 1519 1519 1520 1520 1521 1521 1522 1522 1522 1523 1523 1523 1523 1523